contact:dominique.lefevre@mio.osupytheas.fr, maurice.libes@osupytheas.fr, didier.mallarino@osupytheas.fr
Project:EMSO http://www.emso-fr.org/EMSO-France
Depth: 2436.0 m
Title:EMSO Ligure Ouest : Data MII capteur MICROCAT
DateTime_Computer,Latitude,Longitude,Temperature,Conductivity,Pressure,DateTime_Instrument
DateTime_Computer,Latitude,Longitude,degC,S m-1,dbar,DateTime_Instrument
2019-12-16T00:02:31Z,42.805,6.029,13.2967,4.59970,2469.993,2019-12-16T02:03:01Z
2019-12-16T00:05:34Z,42.805,6.029,13.2968,4.59969,2469.993,2019-12-16T02:06:05Z
2019-12-16T00:08:38Z,42.805,6.029,13.2968,4.59967,2469.993,2019-12-16T02:09:08Z
2019-12-16T00:11:41Z,42.805,6.029,13.2969,4.59968,2470.007,2019-12-16T02:12:11Z
2019-12-16T00:14:44Z,42.805,6.029,13.2968,4.59971,2470.03,2019-12-16T02:15:14Z
2019-12-16T00:17:47Z,42.805,6.029,13.2967,4.59970,2470.017,2019-12-16T02:18:17Z
2019-12-16T00:20:51Z,42.805,6.029,13.2967,4.59968,2470.007,2019-12-16T02:21:21Z
2019-12-16T00:23:54Z,42.805,6.029,13.2966,4.59968,2469.97,2019-12-16T02:24:24Z
2019-12-16T00:26:57Z,42.805,6.029,13.2974,4.59969,2470.053,2019-12-16T02:27:27Z
2019-12-16T00:30:00Z,42.805,6.029,13.2965,4.59970,2469.993,2019-12-16T02:30:30Z
2019-12-16T00:33:03Z,42.805,6.029,13.2970,4.59968,2469.984,2019-12-16T02:33:33Z
2019-12-16T00:36:07Z,42.805,6.029,13.2966,4.59970,2469.993,2019-12-16T02:36:37Z
2019-12-16T00:39:10Z,42.805,6.029,13.2967,4.59968,2470.007,2019-12-16T02:39:40Z
2019-12-16T00:42:13Z,42.805,6.029,13.2963,4.59968,2469.947,2019-12-16T02:42:43Z
2019-12-16T00:45:16Z,42.805,6.029,13.2966,4.59970,2470.007,2019-12-16T02:45:46Z
2019-12-16T00:48:19Z,42.805,6.029,13.2966,4.59967,2469.984,2019-12-16T02:48:49Z
2019-12-16T00:51:23Z,42.805,6.029,13.2967,4.59968,2469.947,2019-12-16T02:51:53Z
2019-12-16T00:54:26Z,42.805,6.029,13.2969,4.59968,2469.984,2019-12-16T02:54:56Z
2019-12-16T00:57:29Z,42.805,6.029,13.2967,4.59976,2469.97,2019-12-16T02:57:59Z
2019-12-16T01:00:32Z,42.805,6.029,13.2969,4.59968,2469.97,2019-12-16T03:01:02Z
2019-12-16T01:03:35Z,42.805,6.029,13.2972,4.59971,2469.937,2019-12-16T03:04:06Z
2019-12-16T01:06:39Z,42.805,6.029,13.2970,4.59969,2469.97,2019-12-16T03:07:09Z
2019-12-16T01:09:42Z,42.805,6.029,13.2969,4.59968,2469.984,2019-12-16T03:10:12Z
2019-12-16T01:12:45Z,42.805,6.029,13.2965,4.59968,2469.97,2019-12-16T03:13:15Z
2019-12-16T01:15:48Z,42.805,6.029,13.2970,4.59967,2469.984,2019-12-16T03:16:18Z
2019-12-16T01:18:51Z,42.805,6.029,13.2967,4.59967,2469.947,2019-12-16T03:19:22Z
2019-12-16T01:21:55Z,42.805,6.029,13.2966,4.59968,2469.923,2019-12-16T03:22:25Z
2019-12-16T01:24:58Z,42.805,6.029,13.2969,4.59970,2469.984,2019-12-16T03:25:28Z
2019-12-16T01:28:01Z,42.805,6.029,13.2974,4.59968,2469.97,2019-12-16T03:28:31Z
2019-12-16T01:31:04Z,42.805,6.029,13.2969,4.59968,2469.937,2019-12-16T03:31:34Z
2019-12-16T01:34:08Z,42.805,6.029,13.2967,4.59968,2469.97,2019-12-16T03:34:38Z
2019-12-16T01:37:11Z,42.805,6.029,13.2967,4.59967,2469.984,2019-12-16T03:37:41Z
2019-12-16T01:40:14Z,42.805,6.029,13.2971,4.59969,2469.97,2019-12-16T03:40:44Z
2019-12-16T01:43:17Z,42.805,6.029,13.2968,4.59967,2469.923,2019-12-16T03:43:47Z
2019-12-16T01:46:20Z,42.805,6.029,13.2967,4.59968,2469.937,2019-12-16T03:46:50Z
2019-12-16T01:49:24Z,42.805,6.029,13.2969,4.59968,2469.937,2019-12-16T03:49:54Z
2019-12-16T01:52:27Z,42.805,6.029,13.2967,4.59967,2469.984,2019-12-16T03:52:57Z
2019-12-16T01:55:30Z,42.805,6.029,13.2966,4.59968,2469.947,2019-12-16T03:56:00Z
2019-12-16T01:58:33Z,42.805,6.029,13.2971,4.59968,2469.96,2019-12-16T03:59:03Z
2019-12-16T02:01:36Z,42.805,6.029,13.2968,4.59968,2469.947,2019-12-16T04:02:07Z
2019-12-16T02:04:40Z,42.805,6.029,13.2968,4.59968,2469.923,2019-12-16T04:05:10Z
2019-12-16T02:07:43Z,42.805,6.029,13.2968,4.59974,2469.947,2019-12-16T04:08:13Z
2019-12-16T02:10:46Z,42.805,6.029,13.2968,4.59969,2469.97,2019-12-16T04:11:16Z
2019-12-16T02:13:49Z,42.805,6.029,13.2968,4.59968,2469.923,2019-12-16T04:14:19Z
2019-12-16T02:16:53Z,42.805,6.029,13.2968,4.59973,2469.9,2019-12-16T04:17:23Z
2019-12-16T02:19:56Z,42.805,6.029,13.2966,4.59972,2469.9,2019-12-16T04:20:26Z
2019-12-16T02:22:59Z,42.805,6.029,13.2968,4.59969,2469.947,2019-12-16T04:23:29Z
2019-12-16T02:26:02Z,42.805,6.029,13.2965,4.59968,2469.947,2019-12-16T04:26:32Z
2019-12-16T02:29:05Z,42.805,6.029,13.2966,4.59968,2469.937,2019-12-16T04:29:36Z
2019-12-16T02:32:09Z,42.805,6.029,13.2967,4.59967,2469.937,2019-12-16T04:32:39Z
2019-12-16T02:35:12Z,42.805,6.029,13.2968,4.59967,2469.96,2019-12-16T04:35:42Z
2019-12-16T02:38:15Z,42.805,6.029,13.2967,4.59966,2469.933,2019-12-16T04:38:45Z
2019-12-16T02:41:18Z,42.805,6.029,13.2967,4.59968,2469.947,2019-12-16T04:41:48Z
2019-12-16T02:44:21Z,42.805,6.029,13.2966,4.59968,2469.947,2019-12-16T04:44:52Z
2019-12-16T02:47:25Z,42.805,6.029,13.2969,4.59968,2469.9,2019-12-16T04:47:55Z
2019-12-16T02:50:28Z,42.805,6.029,13.2967,4.59970,2469.937,2019-12-16T04:50:58Z
2019-12-16T02:53:31Z,42.805,6.029,13.2966,4.59969,2469.914,2019-12-16T04:54:01Z
2019-12-16T02:56:34Z,42.805,6.029,13.2968,4.59966,2469.937,2019-12-16T04:57:04Z
2019-12-16T02:59:38Z,42.805,6.029,13.2968,4.59967,2469.937,2019-12-16T05:00:08Z
2019-12-16T03:02:41Z,42.805,6.029,13.2968,4.59967,2469.9,2019-12-16T05:03:11Z
2019-12-16T03:05:44Z,42.805,6.029,13.2965,4.59968,2469.96,2019-12-16T05:06:14Z
2019-12-16T03:08:47Z,42.805,6.029,13.2968,4.59970,2469.923,2019-12-16T05:09:17Z
2019-12-16T03:11:50Z,42.805,6.029,13.2968,4.59968,2469.937,2019-12-16T05:12:21Z
2019-12-16T03:14:54Z,42.805,6.029,13.2965,4.59968,2469.937,2019-12-16T05:15:24Z
2019-12-16T03:17:57Z,42.805,6.029,13.2967,4.59967,2469.923,2019-12-16T05:18:27Z
2019-12-16T03:21:00Z,42.805,6.029,13.2967,4.59966,2469.937,2019-12-16T05:21:30Z
2019-12-16T03:24:03Z,42.805,6.029,13.2968,4.59967,2469.923,2019-12-16T05:24:33Z
2019-12-16T03:27:06Z,42.805,6.029,13.2967,4.59967,2469.923,2019-12-16T05:27:37Z
2019-12-16T03:30:10Z,42.805,6.029,13.2967,4.59968,2469.9,2019-12-16T05:30:40Z
2019-12-16T03:33:13Z,42.805,6.029,13.2964,4.59967,2469.9,2019-12-16T05:33:43Z
2019-12-16T03:36:16Z,42.805,6.029,13.2964,4.59969,2469.923,2019-12-16T05:36:46Z
2019-12-16T03:39:19Z,42.805,6.029,13.2970,4.59966,2469.9,2019-12-16T05:39:49Z
2019-12-16T03:42:23Z,42.805,6.029,13.2964,4.59968,2469.937,2019-12-16T05:42:53Z
2019-12-16T03:45:26Z,42.805,6.029,13.2968,4.59970,2469.914,2019-12-16T05:45:56Z
2019-12-16T03:48:29Z,42.805,6.029,13.2971,4.59966,2469.914,2019-12-16T05:48:59Z
2019-12-16T03:51:32Z,42.805,6.029,13.2965,4.59969,2469.937,2019-12-16T05:52:02Z
2019-12-16T03:54:35Z,42.805,6.029,13.2964,4.59968,2469.937,2019-12-16T05:55:06Z
2019-12-16T03:57:39Z,42.805,6.029,13.2968,4.59972,2469.9,2019-12-16T05:58:09Z
2019-12-16T04:00:42Z,42.805,6.029,13.2968,4.59966,2469.937,2019-12-16T06:01:12Z
2019-12-16T04:03:45Z,42.805,6.029,13.2966,4.59968,2469.984,2019-12-16T06:04:15Z
2019-12-16T04:06:48Z,42.805,6.029,13.2966,4.59967,2469.947,2019-12-16T06:07:18Z
2019-12-16T04:09:52Z,42.805,6.029,13.2968,4.59966,2469.9,2019-12-16T06:10:22Z
2019-12-16T04:12:55Z,42.805,6.029,13.2968,4.59966,2469.923,2019-12-16T06:13:25Z
2019-12-16T04:15:58Z,42.805,6.029,13.2968,4.59967,2469.923,2019-12-16T06:16:28Z
2019-12-16T04:19:01Z,42.805,6.029,13.2964,4.59967,2469.947,2019-12-16T06:19:31Z
2019-12-16T04:22:05Z,42.805,6.029,13.2966,4.59968,2469.937,2019-12-16T06:22:35Z
2019-12-16T04:25:08Z,42.805,6.029,13.2971,4.59971,2469.937,2019-12-16T06:25:38Z
2019-12-16T04:28:11Z,42.805,6.029,13.2964,4.59966,2469.923,2019-12-16T06:28:41Z
2019-12-16T04:31:14Z,42.805,6.029,13.2963,4.59966,2469.947,2019-12-16T06:31:44Z
2019-12-16T04:34:17Z,42.805,6.029,13.2965,4.59971,2469.96,2019-12-16T06:34:47Z
2019-12-16T04:37:20Z,42.805,6.029,13.2965,4.59968,2469.937,2019-12-16T06:37:51Z
2019-12-16T04:40:24Z,42.805,6.029,13.2968,4.59970,2469.96,2019-12-16T06:40:54Z
2019-12-16T04:43:27Z,42.805,6.029,13.2967,4.59966,2469.937,2019-12-16T06:43:57Z
2019-12-16T04:46:30Z,42.805,6.029,13.2967,4.59966,2469.96,2019-12-16T06:47:00Z
2019-12-16T04:49:33Z,42.805,6.029,13.2965,4.59967,2469.923,2019-12-16T06:50:03Z
2019-12-16T04:52:37Z,42.805,6.029,13.2967,4.59967,2469.914,2019-12-16T06:53:07Z
2019-12-16T04:55:40Z,42.805,6.029,13.2964,4.59967,2469.947,2019-12-16T06:56:10Z
2019-12-16T04:58:43Z,42.805,6.029,13.2966,4.59968,2469.923,2019-12-16T06:59:13Z
2019-12-16T05:01:46Z,42.805,6.029,13.2974,4.59968,2469.923,2019-12-16T07:02:16Z
2019-12-16T05:04:49Z,42.805,6.029,13.2964,4.59967,2469.947,2019-12-16T07:05:20Z
2019-12-16T05:07:53Z,42.805,6.029,13.2968,4.59968,2469.937,2019-12-16T07:08:23Z
2019-12-16T05:10:56Z,42.805,6.029,13.2972,4.59968,2469.947,2019-12-16T07:11:26Z
2019-12-16T05:13:59Z,42.805,6.029,13.2971,4.59968,2469.947,2019-12-16T07:14:29Z
2019-12-16T05:17:02Z,42.805,6.029,13.2967,4.59968,2469.96,2019-12-16T07:17:32Z
2019-12-16T05:20:05Z,42.805,6.029,13.2968,4.59968,2469.96,2019-12-16T07:20:35Z
2019-12-16T05:23:09Z,42.805,6.029,13.2968,4.59968,2469.984,2019-12-16T07:23:39Z
2019-12-16T05:26:12Z,42.805,6.029,13.2967,4.59967,2469.923,2019-12-16T07:26:42Z
2019-12-16T05:29:15Z,42.805,6.029,13.2966,4.59970,2469.947,2019-12-16T07:29:45Z
2019-12-16T05:32:18Z,42.805,6.029,13.2970,4.59968,2469.96,2019-12-16T07:32:48Z
2019-12-16T05:35:21Z,42.805,6.029,13.2970,4.59968,2469.97,2019-12-16T07:35:51Z
2019-12-16T05:38:24Z,42.805,6.029,13.2967,4.59967,2469.97,2019-12-16T07:38:55Z
2019-12-16T05:41:28Z,42.805,6.029,13.2970,4.59968,2469.97,2019-12-16T07:41:58Z
2019-12-16T05:44:31Z,42.805,6.029,13.2966,4.59970,2469.984,2019-12-16T07:45:01Z
2019-12-16T05:47:34Z,42.805,6.029,13.2967,4.59967,2469.984,2019-12-16T07:48:04Z
2019-12-16T05:50:37Z,42.805,6.029,13.2967,4.59968,2469.984,2019-12-16T07:51:07Z
2019-12-16T05:53:40Z,42.805,6.029,13.2971,4.59970,2469.993,2019-12-16T07:54:10Z
2019-12-16T05:56:43Z,42.805,6.029,13.2971,4.59967,2469.984,2019-12-16T07:57:14Z
2019-12-16T05:59:47Z,42.805,6.029,13.2970,4.59969,2469.947,2019-12-16T08:00:17Z
2019-12-16T06:02:50Z,42.805,6.029,13.2972,4.59968,2469.947,2019-12-16T08:03:20Z
2019-12-16T06:05:53Z,42.805,6.029,13.2970,4.59968,2470.007,2019-12-16T08:06:23Z
2019-12-16T06:08:56Z,42.805,6.029,13.2969,4.59969,2469.993,2019-12-16T08:09:26Z
2019-12-16T06:11:59Z,42.805,6.029,13.2968,4.59969,2469.984,2019-12-16T08:12:30Z
2019-12-16T06:15:03Z,42.805,6.029,13.2968,4.59967,2469.993,2019-12-16T08:15:33Z
2019-12-16T06:18:06Z,42.805,6.029,13.2966,4.59967,2470.007,2019-12-16T08:18:36Z
2019-12-16T06:21:09Z,42.805,6.029,13.2965,4.59967,2469.97,2019-12-16T08:21:39Z
2019-12-16T06:24:12Z,42.805,6.029,13.2967,4.59967,2469.96,2019-12-16T08:24:42Z
2019-12-16T06:27:15Z,42.805,6.029,13.2963,4.59966,2470.007,2019-12-16T08:27:45Z
2019-12-16T06:30:19Z,42.805,6.029,13.2964,4.59966,2470.007,2019-12-16T08:30:49Z
2019-12-16T06:33:22Z,42.805,6.029,13.2970,4.59967,2470.017,2019-12-16T08:33:52Z
2019-12-16T06:36:25Z,42.805,6.029,13.2969,4.59967,2469.993,2019-12-16T08:36:55Z
2019-12-16T06:39:28Z,42.805,6.029,13.2967,4.59966,2469.993,2019-12-16T08:39:58Z
2019-12-16T06:42:31Z,42.805,6.029,13.2973,4.59968,2470.017,2019-12-16T08:43:01Z
2019-12-16T06:45:34Z,42.805,6.029,13.2967,4.59969,2470.017,2019-12-16T08:46:05Z
2019-12-16T06:48:38Z,42.805,6.029,13.2968,4.59968,2470.03,2019-12-16T08:49:08Z
2019-12-16T06:51:41Z,42.805,6.029,13.2971,4.59968,2470.04,2019-12-16T08:52:11Z
2019-12-16T06:54:44Z,42.805,6.029,13.2968,4.59968,2470.04,2019-12-16T08:55:14Z
2019-12-16T06:57:47Z,42.805,6.029,13.2969,4.59969,2470.077,2019-12-16T08:58:17Z
2019-12-16T07:00:50Z,42.805,6.029,13.2967,4.59967,2470.053,2019-12-16T09:01:21Z
2019-12-16T07:03:54Z,42.805,6.029,13.2967,4.59967,2470.04,2019-12-16T09:04:24Z
2019-12-16T07:06:57Z,42.805,6.029,13.2967,4.59967,2470.077,2019-12-16T09:07:27Z
2019-12-16T07:10:00Z,42.805,6.029,13.2966,4.59968,2470.04,2019-12-16T09:10:30Z
2019-12-16T07:13:03Z,42.805,6.029,13.2967,4.59969,2470.063,2019-12-16T09:13:33Z
2019-12-16T07:16:07Z,42.805,6.029,13.2966,4.59968,2470.04,2019-12-16T09:16:37Z
2019-12-16T07:19:10Z,42.805,6.029,13.2967,4.59969,2470.03,2019-12-16T09:19:40Z
2019-12-16T07:22:13Z,42.805,6.029,13.2971,4.59966,2470.04,2019-12-16T09:22:43Z
2019-12-16T07:25:16Z,42.805,6.029,13.2970,4.59966,2470.077,2019-12-16T09:25:46Z
2019-12-16T07:28:19Z,42.805,6.029,13.2965,4.59968,2470.063,2019-12-16T09:28:50Z
2019-12-16T07:31:23Z,42.805,6.029,13.2968,4.59967,2470.063,2019-12-16T09:31:53Z
2019-12-16T07:34:26Z,42.805,6.029,13.2968,4.59968,2470.087,2019-12-16T09:34:56Z
2019-12-16T07:37:29Z,42.805,6.029,13.2970,4.59967,2470.087,2019-12-16T09:37:59Z
2019-12-16T07:40:32Z,42.805,6.029,13.2967,4.59968,2470.04,2019-12-16T09:41:02Z
2019-12-16T07:43:35Z,42.805,6.029,13.2970,4.59968,2470.11,2019-12-16T09:44:06Z
2019-12-16T07:46:38Z,42.805,6.029,13.2968,4.59969,2470.124,2019-12-16T09:47:09Z
2019-12-16T07:49:42Z,42.805,6.029,13.2968,4.59968,2470.11,2019-12-16T09:50:12Z
2019-12-16T07:52:45Z,42.805,6.029,13.2969,4.59968,2470.11,2019-12-16T09:53:15Z
2019-12-16T07:55:48Z,42.805,6.029,13.2966,4.59968,2470.11,2019-12-16T09:56:18Z
2019-12-16T07:58:52Z,42.805,6.029,13.2972,4.59967,2470.11,2019-12-16T09:59:22Z
2019-12-16T08:01:55Z,42.805,6.029,13.2969,4.59969,2470.11,2019-12-16T10:02:25Z
2019-12-16T08:04:58Z,42.805,6.029,13.2965,4.59971,2470.147,2019-12-16T10:05:28Z
2019-12-16T08:08:01Z,42.805,6.029,13.2969,4.59968,2470.124,2019-12-16T10:08:31Z
2019-12-16T08:11:04Z,42.805,6.029,13.2967,4.59968,2470.147,2019-12-16T10:11:34Z
2019-12-16T08:14:07Z,42.805,6.029,13.2967,4.59968,2470.133,2019-12-16T10:14:37Z
2019-12-16T08:17:11Z,42.805,6.029,13.2967,4.59968,2470.156,2019-12-16T10:17:41Z
2019-12-16T08:20:14Z,42.805,6.029,13.2970,4.59968,2470.156,2019-12-16T10:20:44Z
2019-12-16T08:23:17Z,42.805,6.029,13.2968,4.59971,2470.124,2019-12-16T10:23:47Z
2019-12-16T08:26:20Z,42.805,6.029,13.2969,4.59968,2470.147,2019-12-16T10:26:50Z
2019-12-16T08:29:23Z,42.805,6.029,13.2967,4.59968,2470.11,2019-12-16T10:29:53Z
2019-12-16T08:32:27Z,42.805,6.029,13.2967,4.59969,2470.171,2019-12-16T10:32:57Z
2019-12-16T08:35:30Z,42.805,6.029,13.2970,4.59971,2470.156,2019-12-16T10:36:00Z
2019-12-16T08:38:33Z,42.805,6.029,13.2969,4.59972,2470.133,2019-12-16T10:39:03Z
2019-12-16T08:41:36Z,42.805,6.029,13.2968,4.59969,2470.171,2019-12-16T10:42:06Z
2019-12-16T08:44:39Z,42.805,6.029,13.2968,4.59973,2470.156,2019-12-16T10:45:09Z
2019-12-16T08:47:42Z,42.805,6.029,13.2967,4.59968,2470.203,2019-12-16T10:48:13Z
2019-12-16T08:50:46Z,42.805,6.029,13.2969,4.59968,2470.194,2019-12-16T10:51:16Z
2019-12-16T08:53:49Z,42.805,6.029,13.2967,4.59968,2470.156,2019-12-16T10:54:19Z
2019-12-16T08:56:52Z,42.805,6.029,13.2969,4.59968,2470.147,2019-12-16T10:57:22Z
2019-12-16T08:59:55Z,42.805,6.029,13.2966,4.59973,2470.217,2019-12-16T11:00:26Z
2019-12-16T09:02:59Z,42.805,6.029,13.2968,4.59969,2470.18,2019-12-16T11:03:29Z
2019-12-16T09:06:02Z,42.805,6.029,13.2970,4.59970,2470.156,2019-12-16T11:06:32Z
2019-12-16T09:09:05Z,42.805,6.029,13.2971,4.59970,2470.217,2019-12-16T11:09:35Z
2019-12-16T09:12:08Z,42.805,6.029,13.2967,4.59969,2470.217,2019-12-16T11:12:38Z
2019-12-16T09:15:11Z,42.805,6.029,13.2971,4.59969,2470.18,2019-12-16T11:15:41Z
2019-12-16T09:18:15Z,42.805,6.029,13.2967,4.59970,2470.18,2019-12-16T11:18:45Z
2019-12-16T09:21:18Z,42.805,6.029,13.2968,4.59972,2470.18,2019-12-16T11:21:48Z
2019-12-16T09:24:21Z,42.805,6.029,13.2968,4.59969,2470.171,2019-12-16T11:24:51Z
2019-12-16T09:27:24Z,42.805,6.029,13.2968,4.59968,2470.18,2019-12-16T11:27:54Z
2019-12-16T09:30:27Z,42.805,6.029,13.2968,4.59968,2470.194,2019-12-16T11:30:57Z
2019-12-16T09:33:30Z,42.805,6.029,13.2967,4.59971,2470.18,2019-12-16T11:34:01Z
2019-12-16T09:36:34Z,42.805,6.029,13.2968,4.59970,2470.194,2019-12-16T11:37:04Z
2019-12-16T09:39:37Z,42.805,6.029,13.2968,4.59968,2470.194,2019-12-16T11:40:07Z
2019-12-16T09:42:40Z,42.805,6.029,13.2968,4.59969,2470.203,2019-12-16T11:43:10Z
2019-12-16T09:45:43Z,42.805,6.029,13.2967,4.59968,2470.203,2019-12-16T11:46:13Z
2019-12-16T09:48:46Z,42.805,6.029,13.2967,4.59968,2470.217,2019-12-16T11:49:17Z
2019-12-16T09:51:50Z,42.805,6.029,13.2964,4.59968,2470.217,2019-12-16T11:52:20Z
2019-12-16T09:54:53Z,42.805,6.029,13.2970,4.59967,2470.203,2019-12-16T11:55:23Z
2019-12-16T09:57:56Z,42.805,6.029,13.2970,4.59968,2470.194,2019-12-16T11:58:26Z
2019-12-16T10:00:59Z,42.805,6.029,13.2967,4.59966,2470.217,2019-12-16T12:01:29Z
2019-12-16T10:04:02Z,42.805,6.029,13.2965,4.59971,2470.18,2019-12-16T12:04:33Z
2019-12-16T10:07:06Z,42.805,6.029,13.2970,4.59968,2470.203,2019-12-16T12:07:36Z
2019-12-16T10:10:09Z,42.805,6.029,13.2964,4.59969,2470.18,2019-12-16T12:10:39Z
2019-12-16T10:13:12Z,42.805,6.029,13.2969,4.59971,2470.18,2019-12-16T12:13:42Z
2019-12-16T10:16:15Z,42.805,6.029,13.2967,4.59968,2470.18,2019-12-16T12:16:45Z
2019-12-16T10:19:18Z,42.805,6.029,13.2967,4.59968,2470.194,2019-12-16T12:19:48Z
2019-12-16T10:22:21Z,42.805,6.029,13.2970,4.59968,2470.217,2019-12-16T12:22:52Z
2019-12-16T10:25:25Z,42.805,6.029,13.2967,4.59968,2470.194,2019-12-16T12:25:55Z
2019-12-16T10:28:28Z,42.805,6.029,13.2968,4.59968,2470.203,2019-12-16T12:28:58Z
2019-12-16T10:31:31Z,42.805,6.029,13.2969,4.59968,2470.18,2019-12-16T12:32:01Z
2019-12-16T10:34:34Z,42.805,6.029,13.2967,4.59968,2470.18,2019-12-16T12:35:04Z
2019-12-16T10:37:37Z,42.805,6.029,13.2968,4.59968,2470.194,2019-12-16T12:38:08Z
2019-12-16T10:40:41Z,42.805,6.029,13.2968,4.59969,2470.217,2019-12-16T12:41:11Z
2019-12-16T10:43:44Z,42.805,6.029,13.2968,4.59967,2470.203,2019-12-16T12:44:14Z
2019-12-16T10:46:47Z,42.805,6.029,13.2968,4.59968,2470.171,2019-12-16T12:47:17Z
2019-12-16T10:49:50Z,42.805,6.029,13.2966,4.59968,2470.194,2019-12-16T12:50:20Z
2019-12-16T10:52:53Z,42.805,6.029,13.2968,4.59968,2470.203,2019-12-16T12:53:24Z
2019-12-16T10:55:57Z,42.805,6.029,13.2968,4.59969,2470.18,2019-12-16T12:56:27Z
2019-12-16T10:59:00Z,42.805,6.029,13.2966,4.59966,2470.171,2019-12-16T12:59:30Z
2019-12-16T11:02:03Z,42.805,6.029,13.2971,4.59971,2470.18,2019-12-16T13:02:33Z
2019-12-16T11:05:06Z,42.805,6.029,13.2968,4.59968,2470.18,2019-12-16T13:05:36Z
2019-12-16T11:08:09Z,42.805,6.029,13.2968,4.59968,2470.194,2019-12-16T13:08:40Z
2019-12-16T11:11:13Z,42.805,6.029,13.2965,4.59968,2470.194,2019-12-16T13:11:43Z
2019-12-16T11:14:16Z,42.805,6.029,13.2970,4.59968,2470.203,2019-12-16T13:14:46Z
2019-12-16T11:17:19Z,42.805,6.029,13.2971,4.59969,2470.156,2019-12-16T13:17:49Z
2019-12-16T11:20:22Z,42.805,6.029,13.2970,4.59970,2470.18,2019-12-16T13:20:52Z
2019-12-16T11:23:26Z,42.805,6.029,13.2971,4.59968,2470.194,2019-12-16T13:23:56Z
2019-12-16T11:26:29Z,42.805,6.029,13.2967,4.59967,2470.194,2019-12-16T13:26:59Z
2019-12-16T11:29:32Z,42.805,6.029,13.2965,4.59967,2470.171,2019-12-16T13:30:02Z
2019-12-16T11:32:35Z,42.805,6.029,13.2965,4.59967,2470.18,2019-12-16T13:33:05Z
2019-12-16T11:35:38Z,42.805,6.029,13.2970,4.59966,2470.147,2019-12-16T13:36:08Z
2019-12-16T11:38:41Z,42.805,6.029,13.2968,4.59967,2470.147,2019-12-16T13:39:12Z
2019-12-16T11:41:45Z,42.805,6.029,13.2968,4.59966,2470.194,2019-12-16T13:42:15Z
2019-12-16T11:44:48Z,42.805,6.029,13.2967,4.59967,2470.171,2019-12-16T13:45:18Z
2019-12-16T11:47:51Z,42.805,6.029,13.2969,4.59968,2470.147,2019-12-16T13:48:21Z
2019-12-16T11:50:54Z,42.805,6.029,13.2968,4.59972,2470.194,2019-12-16T13:51:24Z
2019-12-16T11:53:58Z,42.805,6.029,13.2969,4.59968,2470.11,2019-12-16T13:54:28Z
2019-12-16T11:57:01Z,42.805,6.029,13.2964,4.59968,2470.147,2019-12-16T13:57:31Z
2019-12-16T12:00:04Z,42.805,6.029,13.2964,4.59967,2470.156,2019-12-16T14:00:34Z
2019-12-16T12:03:07Z,42.805,6.029,13.2968,4.59969,2470.133,2019-12-16T14:03:37Z
2019-12-16T12:06:10Z,42.805,6.029,13.2969,4.59969,2470.156,2019-12-16T14:06:40Z
2019-12-16T12:09:13Z,42.805,6.029,13.2968,4.59969,2470.156,2019-12-16T14:09:44Z
2019-12-16T12:12:17Z,42.805,6.029,13.2964,4.59968,2470.156,2019-12-16T14:12:47Z
2019-12-16T12:15:20Z,42.805,6.029,13.2967,4.59968,2470.133,2019-12-16T14:15:50Z
2019-12-16T12:18:23Z,42.805,6.029,13.2964,4.59968,2470.147,2019-12-16T14:18:53Z
2019-12-16T12:21:26Z,42.805,6.029,13.2967,4.59970,2470.11,2019-12-16T14:21:56Z
2019-12-16T12:24:29Z,42.805,6.029,13.2965,4.59968,2470.133,2019-12-16T14:25:00Z
2019-12-16T12:27:33Z,42.805,6.029,13.2963,4.59967,2470.147,2019-12-16T14:28:03Z
2019-12-16T12:30:36Z,42.805,6.029,13.2967,4.59968,2470.11,2019-12-16T14:31:06Z
2019-12-16T12:33:39Z,42.805,6.029,13.2968,4.59968,2470.133,2019-12-16T14:34:09Z
2019-12-16T12:36:42Z,42.805,6.029,13.2967,4.59968,2470.133,2019-12-16T14:37:12Z
2019-12-16T12:39:45Z,42.805,6.029,13.2968,4.59968,2470.11,2019-12-16T14:40:16Z
2019-12-16T12:42:49Z,42.805,6.029,13.2967,4.59967,2470.124,2019-12-16T14:43:19Z
2019-12-16T12:45:52Z,42.805,6.029,13.2967,4.59968,2470.133,2019-12-16T14:46:22Z
2019-12-16T12:48:55Z,42.805,6.029,13.2968,4.59968,2470.11,2019-12-16T14:49:25Z
2019-12-16T12:51:58Z,42.805,6.029,13.2964,4.59968,2470.124,2019-12-16T14:52:28Z
2019-12-16T12:55:01Z,42.805,6.029,13.2967,4.59971,2470.087,2019-12-16T14:55:32Z
2019-12-16T12:58:05Z,42.805,6.029,13.2971,4.59967,2470.11,2019-12-16T14:58:35Z
2019-12-16T13:01:08Z,42.805,6.029,13.2966,4.59967,2470.124,2019-12-16T15:01:38Z
2019-12-16T13:04:11Z,42.805,6.029,13.2970,4.59967,2470.087,2019-12-16T15:04:41Z
2019-12-16T13:07:14Z,42.805,6.029,13.2970,4.59968,2470.11,2019-12-16T15:07:45Z
2019-12-16T13:10:18Z,42.805,6.029,13.2971,4.59968,2470.11,2019-12-16T15:10:48Z
2019-12-16T13:13:21Z,42.805,6.029,13.2970,4.59968,2470.1,2019-12-16T15:13:51Z
2019-12-16T13:16:24Z,42.805,6.029,13.2967,4.59968,2470.087,2019-12-16T15:16:54Z
2019-12-16T13:19:27Z,42.805,6.029,13.2970,4.59967,2470.1,2019-12-16T15:19:57Z
2019-12-16T13:22:30Z,42.805,6.029,13.2968,4.59968,2470.1,2019-12-16T15:23:01Z
2019-12-16T13:25:34Z,42.805,6.029,13.2966,4.59969,2470.087,2019-12-16T15:26:04Z
2019-12-16T13:28:37Z,42.805,6.029,13.2968,4.59967,2470.147,2019-12-16T15:29:07Z
2019-12-16T13:31:40Z,42.805,6.029,13.2969,4.59973,2470.087,2019-12-16T15:32:10Z
2019-12-16T13:34:43Z,42.805,6.029,13.2967,4.59968,2470.11,2019-12-16T15:35:13Z
2019-12-16T13:37:46Z,42.805,6.029,13.2970,4.59967,2470.087,2019-12-16T15:38:16Z
2019-12-16T13:40:50Z,42.805,6.029,13.2966,4.59968,2470.04,2019-12-16T15:41:20Z
2019-12-16T13:43:53Z,42.805,6.029,13.2968,4.59967,2470.1,2019-12-16T15:44:23Z
2019-12-16T13:46:56Z,42.805,6.029,13.2968,4.59968,2470.063,2019-12-16T15:47:26Z
2019-12-16T13:49:59Z,42.805,6.029,13.2968,4.59968,2470.087,2019-12-16T15:50:29Z
2019-12-16T13:53:02Z,42.805,6.029,13.2967,4.59967,2470.087,2019-12-16T15:53:32Z
2019-12-16T13:56:05Z,42.805,6.029,13.2969,4.59968,2470.124,2019-12-16T15:56:36Z
2019-12-16T13:59:09Z,42.805,6.029,13.2967,4.59968,2470.087,2019-12-16T15:59:39Z
2019-12-16T14:02:12Z,42.805,6.029,13.2966,4.59968,2470.087,2019-12-16T16:02:42Z
2019-12-16T14:05:15Z,42.805,6.029,13.2971,4.59967,2470.077,2019-12-16T16:05:45Z
2019-12-16T14:08:18Z,42.805,6.029,13.2971,4.59969,2470.1,2019-12-16T16:08:48Z
2019-12-16T14:11:21Z,42.805,6.029,13.2966,4.59966,2470.087,2019-12-16T16:11:52Z
2019-12-16T14:14:25Z,42.805,6.029,13.2968,4.59968,2470.063,2019-12-16T16:14:55Z
2019-12-16T14:17:28Z,42.805,6.029,13.2967,4.59967,2470.063,2019-12-16T16:17:58Z
2019-12-16T14:20:31Z,42.805,6.029,13.2968,4.59967,2470.063,2019-12-16T16:21:01Z
2019-12-16T14:23:34Z,42.805,6.029,13.2966,4.59968,2470.063,2019-12-16T16:24:04Z
2019-12-16T14:26:37Z,42.805,6.029,13.2967,4.59968,2470.063,2019-12-16T16:27:08Z
2019-12-16T14:29:41Z,42.805,6.029,13.2970,4.59968,2470.04,2019-12-16T16:30:11Z
2019-12-16T14:32:44Z,42.805,6.029,13.2970,4.59970,2470.077,2019-12-16T16:33:14Z
2019-12-16T14:35:47Z,42.805,6.029,13.2967,4.59968,2470.063,2019-12-16T16:36:17Z
2019-12-16T14:38:50Z,42.805,6.029,13.2973,4.59966,2470.03,2019-12-16T16:39:20Z
2019-12-16T14:41:53Z,42.805,6.029,13.2968,4.59966,2470.063,2019-12-16T16:42:24Z
2019-12-16T14:44:57Z,42.805,6.029,13.2969,4.59966,2470.03,2019-12-16T16:45:27Z
2019-12-16T14:48:00Z,42.805,6.029,13.2972,4.59967,2470.087,2019-12-16T16:48:30Z
2019-12-16T14:51:03Z,42.805,6.029,13.2967,4.59968,2470.053,2019-12-16T16:51:33Z
2019-12-16T14:54:06Z,42.805,6.029,13.2965,4.59968,2470.063,2019-12-16T16:54:37Z
2019-12-16T14:57:10Z,42.805,6.029,13.2968,4.59966,2470.077,2019-12-16T16:57:40Z
2019-12-16T15:00:13Z,42.805,6.029,13.2968,4.59967,2470.03,2019-12-16T17:00:43Z
2019-12-16T15:03:16Z,42.805,6.029,13.2965,4.59968,2470.04,2019-12-16T17:03:46Z